Location: Barcelona
(41.3830°N, 2.1830°E)
Time: 16:38:38
(UTC+02:00)

ISS - Pass Details

Date: 09 March 2021
Orbit: 418 x 422 km, 51.6° (Epoch: 16 April)

Event Time Altitude Azimuth Distance (km) Brightness Sun altitude
Exits shadow 06:30:42 - 306° (NW) 1,705 -1.1 -8.7°
Reaches altitude 10° 06:31:12 10° 306° (NW) 1,498 -1.4 -8.6°
Maximum altitude 06:34:34 88° 38° (NE) 422 -3.8 -8.0°
Drops below altitude 10° 06:37:55 10° 126° (SE) 1,491 -0.1 -7.4°
Sets 06:40:01 0° 126° (SE) 2,352 1.0 -7.0°
